Home   Weather   Rathenow   Past weeks

Flag for Germany Past Weather in Rathenow, Brandenburg, Germany — Yesterday and Last 2 Weeks

Now
77 °F

Partly sunny.


Feels Like: 79 °F
Forecast: 62 / 74 °F
Wind: 8 mph from Southeast

Location: Berlin-Tegel

Current Time: Aug 17, 2017 at 8:00:13 pm

Latest Report: Aug 17, 2017 at 7:20 pm


Visibility: N/A

Pressure: 29.95 "Hg

Humidity: 57%

Dew Point: 61 °F

Location of RathenowLocation

Past Weather in Rathenow — Graph

°F

Rathenow Temperature Yesterday

Maximum temperature yesterday: 73 °F (at 12:20 am)
Minimum temperature yesterday: 64 °F (at 8:50 am)
Average temperature yesterday: 68 °F

High & Low Weather Summary for the Past Weeks

 TemperatureHumidityPressure
High82 °F (Aug 3, 4:50 pm)100% (Aug 6, 12:20 am)30.24 "Hg (Aug 6, 12:20 am)
Low52 °F (Aug 7, 4:50 am)30% (Aug 9, 6:50 pm)29.74 "Hg (Aug 3, 5:20 pm)
Average67 °F69%30.01 "Hg
* Reported Aug 2 6:20 pm — Aug 17 6:50 pm, Rathenow. Weather by CustomWeather, © 2017

Note: Actual official high and low records may vary slightly from our data, if they occured in-between our weather recording intervals... More about our weather records

Advertising

Rathenow Weather History for the Previous 24 Hours

Scroll right to see more
 ConditionsComfort  
Time TempWeatherWind HumidityBarometerVisibility
6:50 pm
Thu, Aug 17
77 °FOvercast.8 mph57%29.95 "HgN/A
6:20 pm77 °FOvercast.8 mph57%29.98 "HgN/A
5:50 pm77 °FOvercast.10 mph54%29.98 "HgN/A
5:20 pm77 °FPassing clouds.9 mph54%29.98 "HgN/A
4:50 pm77 °FPassing clouds.12 mph57%30.01 "HgN/A
4:20 pm77 °FMore clouds than sun.9 mph57%30.01 "HgN/A
3:50 pm77 °FMore clouds than sun.10 mph57%30.01 "HgN/A
3:20 pm77 °FBroken clouds.8 mph57%30.04 "HgN/A
2:50 pm77 °FPartly sunny.10 mph57%30.04 "HgN/A
2:20 pm77 °FBroken clouds.12 mph57%30.04 "HgN/A
1:50 pm77 °FPartly sunny.13 mph54%30.04 "HgN/A
1:20 pm77 °FPartly sunny.10 mph57%30.07 "HgN/A
12:50 pm75 °FPartly sunny.12 mph54%30.07 "HgN/A
12:20 pm75 °FScattered clouds.12 mph57%30.07 "HgN/A
11:50 am73 °FScattered clouds.14 mph65%30.09 "HgN/A
11:20 am73 °FPassing clouds.12 mph69%30.09 "HgN/A
10:50 am73 °FPassing clouds.12 mph69%30.09 "HgN/A
10:20 am72 °FPassing clouds.10 mph73%30.09 "HgN/A
9:50 am70 °FPassing clouds.9 mph78%30.12 "HgN/A
9:20 am70 °FPassing clouds.8 mph78%30.12 "HgN/A
8:50 am68 °FPassing clouds.7 mph83%30.12 "HgN/A
8:20 am66 °FPassing clouds.6 mph88%30.12 "HgN/A
7:50 am64 °FPassing clouds.5 mph94%30.12 "HgN/A
7:20 am63 °FSunny.5 mph94%30.12 "Hg10 mi
6:50 am61 °FSunny.2 mph100%30.12 "Hg10 mi
6:32 am61 °FLight fog.2 mph94%30.12 "Hg4 mi
6:20 am59 °FFog.2 mph100%30.12 "Hg1 mi
5:53 am57 °FFog.1 mph100%30.12 "Hg2 mi
5:50 am59 °FFog.1 mph94%30.12 "Hg2 mi
5:28 am59 °FFog.No wind94%30.12 "Hg3 mi
5:20 am59 °FFog.No wind94%30.12 "Hg5 mi
4:50 am61 °FFog.3 mph94%30.12 "Hg6 mi
4:20 am59 °FFog.1 mph100%30.12 "Hg3 mi
4:03 am59 °FCool.1 mph94%30.12 "HgN/A
3:50 am59 °FFog.1 mph100%30.15 "Hg4 mi
3:20 am59 °FFog.1 mph94%30.15 "Hg4 mi
2:50 am61 °FFog.2 mph94%30.15 "HgN/A
2:20 am63 °FClear.2 mph94%30.15 "Hg10 mi
1:50 am61 °FFog.1 mph94%30.15 "Hg5 mi
1:20 am61 °FFog.1 mph94%30.15 "Hg5 mi
12:50 am63 °FFog.2 mph94%30.15 "HgN/A
12:20 am63 °FClear.No wind94%30.15 "Hg10 mi
11:50 pm
Wed, Aug 16
64 °FPassing clouds.3 mph83%30.15 "HgN/A
11:32 pm64 °FPassing clouds.2 mph88%30.15 "HgN/A
11:20 pm64 °FPassing clouds.2 mph88%30.15 "HgN/A
10:50 pm66 °FPassing clouds.3 mph83%30.15 "HgN/A
10:20 pm64 °FPassing clouds.1 mph83%30.15 "HgN/A
9:50 pm64 °FPassing clouds.No wind83%30.15 "HgN/A
9:20 pm68 °FClear.2 mph78%30.15 "Hg10 mi
8:50 pm68 °FPassing clouds.1 mph78%30.15 "HgN/A
8:20 pm68 °FScattered clouds.1 mph78%30.15 "HgN/A
Weather by CustomWeather, © 2017

See weather overviewHow to use our weather pages